[Date Prev][Date Next][Thread Prev][Thread Next] - [Date Index][Thread Index][Author Index]

2 Line ISS Keps 6-23



ISS
1 25544U 98067A   02174.11820258  .00022045  00000-0  29368-3 0  5902
2 25544  51.6392  23.1665 0007059 270.3583 236.1901 15.58034532204958


----
Via the sarex mailing list at AMSAT.ORG courtesy of AMSAT-NA.
To unsubscribe, send "unsubscribe sarex" to Majordomo@amsat.org



AMSAT Top AMSAT Home